Terug naar catalogus

THORAD AGENA D DEB

ActiefSSO
NORAD 39592·DEBRIS·🇺🇸 United States

Gelanceerd Apr 8, 1970 vanaf Vandenberg Space Force Base

Loading…

Volgende Passages (komende 24 uur)

TLE

VersSource: Space-Track

Epoch: Sep 12, 2026, 00:43 UTC

1 39592U 70025QT  26255.03054939  .00000628  00000-0  92427-3 0  9998
2 39592 100.1333 279.3566 0003355 166.7626 193.3600 13.58696530620948

Volg THORAD AGENA D DEB in realtime met AllMySat

Download on the App Store